www.pogodaiklimat.ru

Погода и климат >> Архив погоды >> Россия >> Ненецкий АО >> Мыс Микулкин


ПОГОДА на Мысе Микулкин

  • Прогноз погоды на Мысе Микулкин
  • Монитор погоды на Мысе Микулкин
  • Климат города

АРХИВ ПОГОДЫ на Мысе Микулкин

Время (UTC), дата Ветер
(напр.,м/с)
 
Видим.   Явления Облачность Т
(С)
Тd
(С)
f
(%)
Тe
(С)
Тes
(С)
Комфортность P
(гПа)
Po
(гПа)
Тmin
(С)
Tmax
(С)
R
(мм)
R24
(мм)
S
(см)
18 13.05 СВ 8
{14}
н/о н/о +0.8 -1.3 86 -6 -6 1025.7 1025.0
21 13.05 С 5 н/о н/о +0.3 -1.0 91 -6 -6 1026.4 1025.7
00 14.05 С 4 н/о н/о +0.1 -1.2 91 -5 -5 1027.0 1026.2
03 14.05 С 4 н/о н/о -0.2 -0.9 95 -6 -6 1027.6 1026.8
06 14.05 С 5 н/о н/о +1.2 -2.2 78 -4 -4 1026.6 1025.8
09 14.05 З 4 н/о н/о +1.7 -0.9 83 -3 -3 1025.1 1024.3
12 14.05 З 8 н/о н/о +1.0 -0.3 91 -6 -6 1022.3 1021.6
15 14.05 З 8 н/о н/о +1.1 +0.4 95 -6 -6 1017.9 1017.2
18 14.05 СВ 11
{15}
н/о н/о +0.1 -0.5 96 -9 -9 1017.6 1016.8
21 14.05 СВ 8
{14}
н/о н/о +0.5 -0.4 94 -7 -7 1019.0 1018.2
00 15.05 СВ 8 н/о н/о +0.4 -1.0 90 -7 -7 1020.6 1019.8
03 15.05 СВ 9 н/о н/о +0.6 -0.3 94 -7 -7 1021.7 1020.9
06 15.05 В 7
{14}
н/о н/о -0.7 -2.9 85 -8 -8 1024.5 1023.8
09 15.05 В 6 н/о н/о -0.6 -4.5 75 -7 -7 1027.0 1026.2
12 15.05 В 7 н/о н/о -1.0 -4.3 78 -8 -8 1028.2 1027.4
15 15.05 В 6 н/о н/о -1.7 -5.0 78 -9 -9 1027.9 1027.2
18 15.05 В 5 н/о н/о -3.2 -5.4 85 -10 -10 1027.7 1027.0
21 15.05 ЮВ 5 н/о н/о -3.3 -4.9 89 -10 -10 1026.9 1026.1
00 16.05 Ю 5 н/о н/о -2.5 -4.2 88 -9 -9 1026.0 1025.2
03 16.05 Ю 4 н/о н/о -1.5 -3.5 86 -7 -7 1025.2 1024.4
06 16.05 ЮЗ 4 н/о н/о -1.0 -2.6 89 -7 -7 1023.2 1022.4
09 16.05 Ю 3 н/о н/о +0.8 -1.3 86 -4 -4 1021.9 1021.2
12 16.05 ЮЗ 4 н/о н/о +1.6 -0.3 87 -4 -4 1020.3 1019.5
15 16.05 ЮЗ 2 н/о н/о +1.9 -1.0 81 -1 -1 1018.6 1017.8
18 16.05 СЗ 3 н/о н/о +1.1 -1.0 86 -3 -3 1016.7 1016.0
21 16.05 З 2 н/о н/о +0.5 -0.5 93 -3 -3 1015.6 1014.8
00 17.05 З 1 н/о н/о +1.4 +0.2 92 -1 -1 1014.2 1013.5
03 17.05 Ю 2 н/о н/о +4.4 +0.9 78 +2 +2 1012.9 1012.1
06 17.05 В 6 н/о н/о +4.0 +0.9 80 -1 -1 1013.2 1012.5
09 17.05 СВ 8 н/о н/о +3.5 +0.9 83 -3 -3 1014.8 1014.1
15 17.05 В 8 н/о н/о +2.3 -0.1 84 -4 -4 1017.1 1016.3
18 17.05 ЮВ 8 н/о н/о +0.6 -1.2 88 -7 -7 1018.3 1017.6
21 17.05 ЮВ 7 н/о н/о -0.2 -1.3 92 -7 -7 1018.9 1018.1
00 18.05 ЮВ 9 н/о н/о -1.4 -2.8 90 -10 -10 1018.7 1018.0
03 18.05 ЮВ 7 н/о н/о -1.3 -2.9 89 -9 -9 1018.2 1017.4
06 18.05 ЮВ 7 н/о н/о +1.5 -1.6 80 -5 -5 1016.4 1015.7
09 18.05 ЮВ 5 н/о н/о +2.7 -0.6 79 -3 -3 1015.2 1014.4
12 18.05 ЮВ 6 н/о н/о +3.2 -0.6 76 -2 -2 1012.8 1012.1
15 18.05 ЮВ 5 н/о н/о +2.9 -0.6 78 -2 -2 1010.6 1009.9
18 18.05 Ю 5 н/о н/о +2.8 -0.6 78 -2 -2 1008.3 1007.6
21 18.05 ЮВ 4 н/о н/о +2.7 -0.4 80 -2 -2 1006.2 1005.5
00 19.05 Ю 6 н/о н/о +2.8 +1.3 90 -3 -3 1003.8 1003.0
06 19.05 С 6 н/о н/о +2.3 +1.6 95 -4 -4 1004.0 1003.2
09 19.05 С 13
{21}
н/о н/о +1.1 +0.5 96 -8 -8 1005.3 1004.5
12 19.05 СВ 13
{19}
н/о н/о +1.0 -0.2 92 -8 -8 1007.2 1006.5
15 19.05 СВ 11
{18}
н/о н/о +0.1 -1.6 88 -8 -8 1010.1 1009.3
21 19.05 С 5 н/о н/о -0.7 -2.3 89 -7 -7 1013.0 1012.2

 

Местоположение метеостанции Мыс Микулкин (Ненецкий АО, Россия): широта 67.80 долгота 46.66 высота над уровнем моря 6 м.

В архиве по умолчанию представлена погода на Мысе Микулкин за последнюю неделю. Архивные данные за месяц целиком и за предыдущие месяцы, начиная с января 2011 года, Вы можете получить, выбрав интересующий диапазон дат из раскрывающегося списка и нажав кнопку "Ввод!".


*Определитесь, кто Вы:
робот инопланетянин человек

Внимание! Время в таблицах - всемирное. Для получения местного времени необходимо прибавить поправку, которая на Мысе Микулкин равна 3 ч.

Смотрите также архив погоды в соседних городах и на ближайших метеорологических станциях:

Погода в Индиге (Ненецкий АО, Россия) (86 км)
Погода в Шойне (Ненецкий АО, Россия) (105 км)
Погода в Нижней Пеше (Ненецкий АО, Россия) (126 км)
Погода в Бугрино (Ненецкий АО, Россия) (156 км)
Погода в Неси (Ненецкий АО, Россия) (158 км)
Погода в Канином Носе (Ненецкий АО, Россия) (168 км)
Погода в Сенгейском Шаре (Ненецкий АО, Россия) (205 км)
Погода в Коткино (Ненецкий АО, Россия) (209 км)
Погода на Колгуевом Острове (Ненецкий АО, Россия) (216 км)
Погода на Моржовец Острове (Архангельская область, Россия) (216 км)

Пояснения к столбцам:

Ветер - указаны скорость ветра в м/с - средняя за 10 мин, порывы в срок и между сроками (в фигурных скобках) и направление, откуда дует ветер: С - северный, СВ - северо-восточный, В - восточный, ЮВ - юго-восточный, Ю - южный, ЮЗ - юго-западный, З - западный, СЗ - северо-западный.
Видимость - горизонтальная дальность видимости в метрах или километрах. При видимости от 1 до 10 км при отсутствии осадков обычно наблюдается дымка, при ухудшении видимости до 1 км и менее - туман. В сухую погоду видимость может ухудшаться дымом, пылью или мглою.
Явления - указаны атмосферные явления, наблюдавшиеся в срок или в последний час перед сроком; фигурными скобками обозначены явления, наблюдавшиеся между сроками (за 1-3 часа до срока); квадратными скобками обозначены град или гололедные отложения с указанием их диаметра в мм.
Облачность - указаны через наклонную черту общая и нижняя облачность в баллах и высота нижней границы облаков в метрах; квадратными скобками обозначены формы облаков: Ci - перистые, Cs - перисто-слоистые, Cc - перисто-кучевые, Ac - высококучевые, As - высокослоистые, Sc - слоисто-кучевые, Ns - слоисто-дождевые, Cu - кучевые, Cb - кучево-дождевые. Подробнее классификацию облаков см. в Атласе облаков (PDF).
T - Температура воздуха - температура, измеренная на высоте 2 м над землей.
Td - Температура точки росы - температура, при понижении до которой содержащийся в воздухе водяной пар достигнет насыщения.
f - Относительная влажность воздуха - влажноcть воздуха, измеренная на высоте 2 м над землей.
Te - Эффективная температура - температура, которую ощущает одетый по сезону человек в тени. Характеристика душности погоды. При расчете учитывается влияние влажности воздуха и скорости ветра на теплоощущения человека.
Tes - Эффективная температура на солнце - температура, которую ощущает человек, с поправкой на солнечный нагрев. Характеристика знойности погоды. Зависит от высоты солнца над горизонтом, облачности и скорости ветра. Ночью, в пасмурную погоду, а также при ветре 12 м/с и более поправка равна нулю.
P - Атмосферное давление - приведенное к уровню моря атмосферное давление.
Po - Атмосферное давление - измеренное на уровне метеостанции атмосферное давление.
Tmin - Минимальная температура - минимум температуры воздуха на высоте 2 м над землей.
Tmax - Максимальная температура - максимум температуры воздуха на высоте 2 м над землей.
R - Количество осадков - Количество выпавших осадков за период времени, мм. При наведении курсора мыши на число - период времени, за который выпало указанное количество осадков.
R24 - Количество осадков - Количество выпавших осадков за 24 часа, мм.
S - Снежный покров - Высота снежного покрова, см. При наведении курсора мыши на число - состояние снежного покрова и степень покрытия местности в баллах.